Portada
METAR-TAF:

METAR-TAF

Aeroports :

Copper Harbor, Michigan, Estats Units d'Amèrica

latitud: 47-28-01N, longitud: 087-52-30W, altitud: 190 m

Observació

L'informe es va fer fa 31 minuts, a les 22:51 UTC
Vent 7 kt del Sud-Est
Temperatura 3°C
Humitat 93%
Pressió 1023 hPa

METAR: KP59 222251Z AUTO 14007KT 03/02 A3020 RMK AO1 SLP233 P0003 T00330017

Hora: 19:22 (23:22 UTC)


TAF: manca

Observacions i pronòstics meteorològics de més de 4000 aeroports (METAR i TAF).

Les estacions disponibles són els punts grocs i vermells al mapa.

Posi el ratolí al punt desitjat per veure el nom de l'estació.

Feu clic per veure les observacions i els pronòstics meteorològics.

Per canviar el mapa: feu clic els botons verds amb una creu de color negre per apropar; al botó verd amb un guió per allunyar la imatge; o en les fletxes verdes per a mapes adjacents.


METAR-TAF: